Weather History for KPCZ - February, 2014

Change the Weather History Date:

Thursday, February 13, 2014

  Actual Average Record
Temperature  
Mean Temperature 12 °F -  
Max Temperature 26 °F 29 °F 51 °F (2011)
Min Temperature -1 °F 10 °F -13 °F (1955)
Degree Days  
Heating Degree Days 52    
Moisture  
Dew Point 13 °F    
Average Humidity 80    
Maximum Humidity 90    
Minimum Humidity 68    
Precipitation  
Precipitation 0.00 in - - ()
Sea Level Pressure  
Sea Level Pressure 29.63 in    
Wind  
Wind Speed 5 mph (South)    
Max Wind Speed 14 mph    
Max Gust Speed 23 mph    
Visibility 6 miles    
Events Snow    
Averages and records for this station are not official NWS values.
T = Trace of Precipitation, MM = Missing Value Source: NWS Daily Summary

Daily Weather History Graph

Daily Weather History Graph

Search for Another Location

Airport or City:

Trip Planner

Search our weather history database for the weather conditions in past years. The results will help you decide how hot, cold, wet, or windy it might be!

Date:

Astronomy

Feb. 13, 2014 Rise Set
Actual Time 6:58 AM CST 5:22 PM CST
Civil Twilight 6:28 AM CST 5:52 PM CST
Nautical Twilight 5:54 AM CST 6:26 PM CST
Astronomical Twilight 5:21 AM CST 7:00 PM CST
Moon 4:30 PM CST (2/13) 5:52 AM CST (2/13)
Length of Visible Light 11h 23m
Length of Day
10h 23m
Waxing Gibbous, 99% of the Moon is Illuminated
Feb 13
Waxing Gibbous
Feb 14
Full
Feb 22
Last Quarter
Mar 1
New
Mar 8
First Quarter

Hourly Weather History & Observations

Time (CST) Temp. Windchill Dew Point Humidity Pressure Visibility Wind Dir Wind Speed Gust Speed Precip Events Conditions
12:15 AM -1.5 °F - -7.2 °F 77% 29.95 in 7.0 mi Calm Calm - N/A   Clear
12:35 AM -0.8 °F - -6.0 °F 79% 29.94 in 7.0 mi Calm Calm - N/A   Clear
12:55 AM 1.0 °F -6.7 °F -4.0 °F 79% 29.95 in 7.0 mi NW 3.5 mph - N/A   Clear
1:15 AM -0.6 °F -8.5 °F -6.0 °F 78% 29.94 in 7.0 mi North 3.5 mph - N/A   Clear
1:35 AM -0.2 °F - -5.6 °F 78% 29.93 in 10.0 mi Calm Calm - N/A   Clear
1:55 AM 1.4 °F - -3.8 °F 79% 29.93 in 7.0 mi Calm Calm - N/A   Clear
2:15 AM 2.7 °F - -2.6 °F 79% 29.90 in 7.0 mi Calm Calm - N/A   Scattered Clouds
2:35 AM 4.3 °F - -0.6 °F 80% 29.89 in 7.0 mi Calm Calm - N/A   Overcast
2:55 AM 6.3 °F - 1.4 °F 80% 29.88 in 5.0 mi Calm Calm - N/A   Haze
3:15 AM 7.3 °F - 2.7 °F 81% 29.88 in 5.0 mi Calm Calm - N/A   Haze
3:35 AM 7.3 °F - 2.7 °F 81% 29.87 in 7.0 mi Calm Calm - N/A   Overcast
3:55 AM 7.9 °F - 3.4 °F 82% 29.86 in 5.0 mi Calm Calm - N/A   Haze
4:15 AM 8.2 °F - 3.6 °F 81% 29.86 in 7.0 mi Calm Calm - N/A   Overcast
4:35 AM 8.6 °F - 4.1 °F 82% 29.86 in 5.0 mi Calm Calm - N/A   Haze
4:55 AM 9.3 °F - 4.8 °F 82% 29.85 in 5.0 mi Calm Calm - N/A   Overcast
5:15 AM 10.4 °F - 6.3 °F 83% 29.84 in 5.0 mi Calm Calm - N/A   Overcast
5:35 AM 10.8 °F 1.2 °F 6.4 °F 83% 29.81 in 4.0 mi East 5.8 mph - N/A   Haze
5:55 AM 11.8 °F 5.7 °F 7.7 °F 83% 29.79 in 5.0 mi ESE 3.5 mph - N/A   Haze
6:15 AM 13.5 °F 5.8 °F 9.5 °F 84% 29.78 in 7.0 mi SE 4.6 mph - N/A   Overcast
6:35 AM 14.9 °F 7.5 °F 11.1 °F 85% 29.76 in 7.0 mi SE 4.6 mph - N/A   Overcast
6:55 AM 15.4 °F 8.1 °F 11.7 °F 85% 29.76 in 7.0 mi ESE 4.6 mph - N/A   Overcast
7:15 AM 16.2 °F 7.6 °F 12.2 °F 84% 29.74 in 7.0 mi SE 5.8 mph - N/A   Overcast
7:35 AM 16.9 °F 7.4 °F 13.3 °F 86% 29.73 in 7.0 mi SE 6.9 mph - N/A   Overcast
7:55 AM 18.0 °F 7.7 °F 14.4 °F 86% 29.72 in 10.0 mi SE 8.1 mph - N/A   Overcast
8:15 AM 18.5 °F 9.3 °F 14.9 °F 86% 29.71 in 5.0 mi SE 6.9 mph - N/A Snow Light Snow
8:35 AM 19.4 °F 6.0 °F 15.1 °F 83% 29.68 in 1.0 mi SE 13.8 mph 17.3 mph N/A Snow Light Snow
8:55 AM 20.3 °F 8.3 °F 16.2 °F 84% 29.68 in 0.5 mi SSE 11.5 mph - N/A Snow Snow
9:15 AM 20.8 °F 9.7 °F 16.7 °F 84% 29.67 in 1.5 mi SSE 10.4 mph - N/A Snow Light Snow
9:35 AM 21.2 °F 8.9 °F 16.9 °F 83% 29.65 in 2.5 mi SSE 12.7 mph - N/A Snow Light Snow
9:55 AM 21.2 °F 9.5 °F 16.3 °F 82% 29.64 in 1.0 mi SSE 11.5 mph 16.1 mph N/A Snow Light Snow
10:15 AM 21.2 °F 8.3 °F 16.5 °F 82% 29.62 in 1.2 mi SSE 13.8 mph - N/A Snow Light Snow
10:35 AM 21.7 °F 10.2 °F 16.7 °F 81% 29.62 in 1.5 mi SSE 11.5 mph - N/A Snow Light Snow
10:55 AM 22.1 °F 10.6 °F 16.7 °F 80% 29.61 in 10.0 mi SSE 11.5 mph 18.4 mph N/A   Mostly Cloudy
11:15 AM 22.5 °F 10.5 °F 16.5 °F 78% 29.59 in 10.0 mi South 12.7 mph - N/A   Overcast
11:35 AM 23.0 °F 11.1 °F 16.7 °F 77% 29.58 in 10.0 mi South 12.7 mph 17.3 mph N/A   Overcast
11:55 AM 23.4 °F 12.8 °F 16.7 °F 76% 29.56 in 7.0 mi South 10.4 mph 16.1 mph N/A   Overcast
12:15 PM 24.1 °F 12.5 °F 16.9 °F 74% 29.53 in 7.0 mi South 12.7 mph - N/A   Overcast
12:35 PM 24.4 °F 14.9 °F 17.4 °F 75% 29.52 in 7.0 mi South 9.2 mph - N/A   Overcast
12:55 PM 24.6 °F 15.1 °F 17.6 °F 75% 29.50 in 7.0 mi South 9.2 mph - N/A   Overcast
1:35 PM 25.3 °F 17.6 °F 18.5 °F 75% 29.47 in 7.0 mi South 6.9 mph - N/A   Overcast
1:55 PM 25.5 °F 16.2 °F 18.9 °F 76% 29.46 in 7.0 mi South 9.2 mph - N/A   Overcast
2:15 PM 25.7 °F 19.0 °F 19.0 °F 76% 29.46 in 5.0 mi South 5.8 mph - N/A   Haze
2:35 PM 25.7 °F 18.0 °F 19.2 °F 76% 29.46 in 5.0 mi South 6.9 mph - N/A   Haze
2:55 PM 25.7 °F 18.0 °F 19.2 °F 76% 29.45 in 5.0 mi South 6.9 mph - N/A   Haze
3:15 PM 25.7 °F 20.1 °F 19.4 °F 77% 29.45 in 5.0 mi SSE 4.6 mph - N/A   Haze
3:35 PM 25.7 °F 20.1 °F 19.4 °F 77% 29.45 in 5.0 mi SE 4.6 mph - N/A   Haze
3:55 PM 25.7 °F 21.5 °F 19.9 °F 79% 29.46 in 4.0 mi SSE 3.5 mph - N/A   Haze
4:15 PM 25.7 °F 21.5 °F 20.7 °F 81% 29.46 in 2.0 mi SSE 3.5 mph - N/A   Haze
4:35 PM 25.7 °F 21.5 °F 21.2 °F 83% 29.46 in 2.5 mi South 3.5 mph - N/A   Haze
4:55 PM 25.7 °F 21.5 °F 21.9 °F 86% 29.46 in 1.8 mi SSE 3.5 mph - N/A   Overcast
5:15 PM 25.7 °F - 22.1 °F 86% 29.46 in 1.5 mi Calm Calm - N/A   Overcast
5:35 PM 25.7 °F - 22.5 °F 88% 29.46 in 2.5 mi Calm Calm - N/A   Overcast
5:55 PM 25.7 °F - 22.8 °F 89% 29.46 in 2.0 mi Calm Calm - N/A   Overcast
6:15 PM 25.7 °F - 22.6 °F 88% 29.47 in 1.8 mi Calm Calm - N/A Snow Light Snow
6:35 PM 25.7 °F 21.5 °F 22.8 °F 89% 29.47 in 2.0 mi SW 3.5 mph - N/A Snow Light Snow
6:55 PM 26.2 °F 15.2 °F 23.5 °F 90% 29.47 in 3.0 mi West 12.7 mph 20.7 mph N/A Snow Light Snow
7:15 PM 25.7 °F 14.0 °F 21.4 °F 84% 29.48 in 5.0 mi West 13.8 mph 18.4 mph N/A Snow Light Snow
7:35 PM 25.7 °F 14.6 °F 19.8 °F 78% 29.48 in 7.0 mi WNW 12.7 mph - N/A Snow Light Snow
7:55 PM 25.0 °F 14.2 °F 18.7 °F 77% 29.49 in 7.0 mi WNW 11.5 mph 21.9 mph N/A   Overcast
8:15 PM 24.8 °F 16.1 °F 18.5 °F 77% 29.49 in 7.0 mi West 8.1 mph - N/A Snow Light Snow
8:35 PM 24.8 °F 13.4 °F 18.3 °F 76% 29.50 in 7.0 mi West 12.7 mph 18.4 mph N/A Snow Light Snow
8:55 PM 24.4 °F 13.5 °F 17.6 °F 75% 29.50 in 7.0 mi West 11.5 mph 17.3 mph N/A   Overcast
9:15 PM 24.3 °F 13.3 °F 17.6 °F 76% 29.51 in 7.0 mi West 11.5 mph 21.9 mph N/A   Overcast
9:35 PM 23.9 °F 13.5 °F 17.6 °F 77% 29.51 in 7.0 mi West 10.4 mph 17.3 mph N/A   Overcast
9:55 PM 24.3 °F 14.6 °F 17.6 °F 76% 29.51 in 7.0 mi West 9.2 mph 17.3 mph N/A Snow Light Snow
10:15 PM 24.4 °F 14.2 °F 17.4 °F 75% 29.51 in 7.0 mi WNW 10.4 mph 16.1 mph N/A   Overcast
10:35 PM 24.6 °F 14.4 °F 17.1 °F 73% 29.51 in 10.0 mi West 10.4 mph 16.1 mph N/A   Overcast
10:55 PM 23.9 °F 13.5 °F 15.8 °F 71% 29.52 in 10.0 mi WNW 10.4 mph 17.3 mph N/A   Overcast
11:15 PM 23.0 °F 11.1 °F 14.0 °F 68% 29.52 in 10.0 mi WNW 12.7 mph 18.4 mph N/A   Overcast
11:35 PM 22.1 °F 10.6 °F 13.1 °F 68% 29.53 in 10.0 mi WNW 11.5 mph 19.6 mph N/A   Overcast
11:55 PM 21.2 °F 8.9 °F 12.2 °F 68% 29.54 in 10.0 mi WNW 12.7 mph 23.0 mph N/A   Mostly Cloudy